Theta_e
316 321 324 325 324 323 320 319 321 323 323 322 323 326 325 324 324 325 323 318 315 317 320 318 317 317 317 316 314 312 312 310 310 310 310 311 311 311 311 310 311 311 311 311 312 312 312 311 310 310 311 310 310 310 310 310 311 314 314 315 317 318 318 318 317 317 318 317 317 317 318 317 316 316 316 317 316 316 317 318 317 318 320 320 321 321
317 322 325 326 323 320 320 320 318 319 320 320 320 322 322 324 324 323 322 318 315 317 322 321 318 318 318 317 316 313 310 309 310 310 310 311 311 311 311 310 310 310 310 310 311 311 311 310 309 309 310 310 310 310 311 311 311 314 314 313 316 316 316 317 316 316 317 316 316 316 316 315 314 314 314 314 315 314 314 317 318 318 317 317 316 315
320 322 323 321 318 318 321 320 318 319 319 320 322 322 324 328 326 323 322 318 316 317 324 325 320 320 319 318 317 313 311 312 313 313 313 313 311 311 311 310 309 309 309 309 310 311 310 309 308 309 309 309 309 310 311 312 311 312 313 313 313 314 314 315 316 316 316 316 316 315 314 313 312 312 312 312 313 313 314 316 316 313 310 309 308 308
324 327 322 316 316 319 321 320 319 321 322 323 323 321 325 328 325 325 324 319 317 318 320 322 320 318 317 317 317 315 314 314 315 315 314 313 312 312 312 312 311 310 310 310 310 310 309 309 308 308 309 309 309 309 310 311 311 310 311 311 311 312 314 314 314 315 314 313 313 312 312 312 311 310 311 312 313 313 313 311 309 306 305 305 304 304
323 325 319 316 318 320 320 321 321 321 324 328 326 322 325 326 323 324 324 320 321 323 321 319 320 323 322 319 319 317 315 315 315 314 313 312 312 313 312 312 312 312 311 311 311 310 310 309 309 309 309 309 309 308 308 309 310 309 309 310 310 311 313 313 312 312 311 310 311 310 310 311 310 310 311 311 311 309 308 305 304 304 303 303 302 302
320 318 318 320 320 320 320 321 325 325 324 326 329 325 322 323 323 324 323 322 326 330 325 320 325 332 331 324 322 321 319 319 317 313 312 313 312 312 312 311 311 311 311 311 311 311 310 309 309 308 308 309 308 308 308 309 309 309 309 310 309 309 311 311 311 310 310 310 310 309 309 309 308 308 307 307 306 305 304 303 302 301 301 300 300 300
320 317 319 321 322 323 322 321 325 326 323 324 327 327 324 322 322 323 322 323 329 331 323 320 327 330 326 322 323 323 322 322 319 313 312 313 313 312 312 311 311 311 310 310 310 310 310 310 309 309 308 308 308 308 309 309 309 309 309 309 309 309 310 312 312 311 311 311 310 309 308 307 306 305 305 304 304 303 302 302 301 300 299 299 299 298
320 319 320 322 323 325 323 323 324 323 325 328 326 325 327 325 324 325 323 324 329 329 324 322 325 325 323 322 322 322 322 322 320 318 313 311 312 313 312 311 311 311 310 310 309 309 309 310 309 309 308 308 309 309 309 309 309 309 309 309 309 310 312 313 313 312 311 311 309 308 307 305 304 304 304 303 302 301 301 300 299 299 298 298 298 298
318 320 323 323 323 324 324 326 326 321 323 327 325 325 327 328 327 327 325 325 326 325 325 324 322 324 326 325 324 322 323 322 321 320 316 311 311 311 311 311 311 311 311 310 310 310 310 310 309 309 308 308 309 309 309 309 310 310 309 309 310 312 313 313 312 311 311 309 307 306 305 304 304 303 302 301 301 300 299 299 298 298 298 298 297 297
320 319 320 322 324 324 325 326 325 324 323 321 322 326 329 329 327 326 324 325 326 324 325 325 323 324 326 327 326 324 324 323 321 320 317 313 311 311 311 311 310 310 310 310 310 310 310 310 309 308 307 308 309 309 309 311 311 310 309 310 311 312 313 312 311 310 309 307 306 305 304 304 303 302 301 301 300 299 299 298 298 298 298 297 297 297
318 314 314 319 321 319 320 319 317 320 319 318 323 330 331 330 329 328 326 324 326 325 324 325 324 324 326 330 331 327 327 326 321 320 319 314 312 311 311 310 310 310 309 309 308 308 309 308 307 307 307 308 309 309 310 312 312 311 311 311 311 312 312 311 310 308 306 305 304 304 303 303 302 302 301 300 300 299 298 298 298 298 297 297 297 296
316 317 317 317 315 315 319 317 314 317 317 319 328 330 329 330 329 327 324 322 326 327 327 326 322 321 324 330 330 327 326 323 320 321 322 316 311 311 311 310 310 310 309 308 308 307 308 307 306 306 306 308 308 309 311 312 311 311 311 311 311 312 311 310 308 306 305 304 304 303 302 302 301 301 301 301 300 299 298 298 298 298 297 297 296 296
319 321 319 316 314 316 322 322 319 321 320 322 328 327 325 327 327 326 324 323 325 326 325 322 320 321 323 323 323 323 322 320 318 317 317 315 311 311 311 310 310 309 309 308 308 307 307 307 307 306 306 307 307 309 310 310 310 310 310 310 311 311 309 308 306 305 304 303 303 302 301 301 301 300 300 300 300 299 298 298 298 298 297 297 296 296
324 323 318 317 317 316 320 322 321 323 322 321 324 326 327 325 327 329 327 325 326 326 321 317 319 324 324 323 323 321 319 318 316 313 314 315 314 313 311 310 310 309 309 308 307 307 307 307 307 307 306 307 307 308 309 309 309 309 309 310 311 310 307 306 305 304 303 303 302 301 300 300 300 300 299 299 299 299 298 298 297 297 297 297 296 296
325 325 321 320 319 317 318 319 321 323 320 319 321 324 326 328 331 332 329 328 329 328 320 315 321 327 327 326 321 314 310 311 312 312 313 313 313 313 310 309 309 308 308 307 307 307 306 307 307 307 307 306 307 308 308 308 309 309 310 310 309 308 306 305 304 303 302 302 301 300 300 299 299 299 299 298 298 298 298 297 297 297 296 296 296 296
321 326 324 318 316 317 317 317 318 321 319 319 322 324 325 328 329 328 328 326 324 325 321 318 324 327 324 321 315 309 307 307 308 310 311 310 309 309 308 308 308 308 307 306 306 306 306 306 307 307 307 306 306 308 308 308 308 309 310 309 307 306 305 304 303 302 301 301 300 299 299 298 298 298 298 298 297 297 297 297 297 297 296 296 296 296
322 326 322 315 314 315 315 317 316 319 322 320 320 322 322 324 325 326 327 322 320 324 324 321 324 325 321 319 317 314 312 310 309 308 308 308 307 307 307 307 307 307 306 306 306 305 306 306 306 306 306 306 306 308 308 308 309 309 309 307 306 305 304 303 302 301 300 300 299 299 298 298 298 298 298 298 297 297 296 296 296 296 296 296 296 295
326 326 320 316 318 314 311 315 314 314 319 321 322 321 319 323 326 327 327 325 324 326 324 323 324 325 323 322 319 315 314 314 314 310 306 305 305 305 306 307 307 307 306 306 305 305 306 306 306 306 306 306 307 307 308 309 309 309 307 306 305 304 303 302 302 301 300 299 299 299 298 298 298 298 297 297 297 297 297 296 296 296 296 296 295 295
325 326 320 315 318 315 311 316 317 314 314 319 321 319 321 326 327 325 325 327 328 327 327 326 324 322 322 323 321 317 317 318 316 312 308 306 304 304 305 306 306 306 305 305 305 306 306 306 306 306 306 306 307 307 309 309 309 308 306 305 304 303 303 302 301 300 299 299 299 298 298 298 297 297 297 296 297 297 297 297 296 296 296 295 295 294
324 325 323 315 314 316 314 317 321 319 315 316 317 316 322 327 326 325 325 325 328 328 328 328 325 323 322 323 323 321 320 318 315 313 311 307 304 304 305 306 306 305 305 305 306 307 307 307 306 306 305 306 306 307 309 309 307 306 305 304 303 303 302 301 300 300 299 299 298 298 298 297 297 297 296 296 296 296 296 296 296 296 295 295 294 294
322 323 324 317 313 316 318 319 321 320 317 317 319 318 320 321 321 324 323 323 327 328 328 327 325 326 324 321 321 321 319 317 315 314 311 306 305 306 306 307 307 306 305 306 308 308 308 307 305 305 305 306 306 308 308 308 306 305 304 303 303 302 301 301 300 299 299 298 298 297 297 297 297 296 296 296 296 296 296 296 295 295 295 294 294 294
322 323 326 320 315 318 322 320 316 317 318 317 318 319 319 319 321 324 323 321 322 324 328 327 324 325 323 319 319 320 318 315 312 313 311 307 306 306 306 308 308 307 307 308 308 308 307 306 305 305 305 306 306 307 308 307 305 304 304 303 302 302 301 301 300 299 299 298 297 297 297 297 297 297 296 296 296 296 296 296 295 295 295 294 294 294
322 325 326 323 318 317 319 317 313 314 318 317 317 319 319 319 321 324 324 323 322 322 324 324 324 323 318 318 322 318 314 312 310 310 309 308 308 307 306 308 308 308 308 308 309 308 307 306 305 305 305 306 306 307 307 306 305 304 303 302 302 301 301 300 300 299 298 298 297 296 296 297 297 296 296 296 296 296 296 295 295 295 294 294 294 293
321 324 325 324 321 316 315 318 316 315 317 318 319 319 319 318 319 322 324 324 324 324 323 322 324 322 315 316 316 309 307 310 310 310 309 309 308 307 307 308 308 308 307 307 307 307 306 305 305 305 305 306 306 306 306 305 305 304 303 302 302 301 301 300 299 299 298 297 296 296 296 296 296 296 296 296 296 296 295 295 295 294 294 293 293 293
320 324 325 326 325 321 319 320 319 317 317 318 320 319 316 318 319 320 322 321 321 323 323 323 324 322 317 316 312 309 310 311 309 310 310 309 308 308 307 308 308 307 307 306 305 305 306 306 305 305 306 306 306 306 306 305 305 304 303 302 302 301 301 300 299 298 298 297 296 296 296 296 296 296 296 296 296 296 295 295 295 294 294 293 293 293
322 324 323 324 326 325 323 323 321 318 316 317 319 318 316 317 319 319 320 320 321 321 322 322 323 322 320 317 316 316 316 313 310 310 310 310 309 309 308 308 308 307 307 307 307 307 307 307 306 306 306 306 306 306 306 306 305 304 303 302 302 301 300 300 299 298 298 297 296 296 296 296 296 296 296 296 296 295 295 295 294 294 293 293 293 293
324 323 321 323 325 324 323 324 322 320 318 317 318 318 317 317 318 319 320 320 322 322 321 321 321 322 321 318 320 321 319 318 316 309 308 310 310 309 310 309 308 307 307 307 308 308 307 307 307 307 306 306 306 306 306 306 305 304 303 302 302 301 300 299 299 298 297 297 296 296 296 296 296 295 295 295 295 295 294 294 294 293 293 292 292 292
327 323 320 323 323 322 322 323 321 319 319 319 318 318 317 316 317 319 319 319 322 323 322 321 320 321 320 318 322 325 322 322 316 307 307 310 310 310 310 308 307 307 305 305 306 307 307 307 306 306 306 306 306 306 306 306 305 304 303 303 302 301 300 299 298 298 297 296 296 296 296 295 295 295 295 295 294 294 293 293 293 292 292 291 291 291
326 324 321 322 322 321 321 321 320 319 318 318 318 317 317 316 316 318 318 318 320 321 321 321 322 322 320 319 321 321 318 317 314 311 311 312 310 309 308 307 307 306 305 305 305 306 307 307 307 307 307 306 306 306 306 306 305 304 303 302 302 301 300 299 298 298 297 297 296 296 295 295 294 294 294 294 293 293 292 292 292 291 291 291 291 291
320 323 321 321 321 321 321 320 320 319 319 319 318 318 317 316 316 316 317 317 318 319 319 319 321 320 319 321 323 319 314 313 312 311 311 310 309 309 308 307 307 306 305 305 305 307 308 308 308 308 307 306 306 306 306 306 306 305 303 302 302 301 300 299 299 298 297 297 296 296 295 294 294 294 294 293 293 292 292 291 291 291 290 290 290 290
316 321 321 320 321 321 320 319 320 321 321 321 320 318 317 316 316 315 316 316 317 318 318 318 319 319 316 318 320 316 312 312 311 309 309 309 309 309 307 307 307 306 306 305 305 307 308 308 307 306 306 306 306 307 307 307 306 305 304 303 302 301 300 299 299 298 298 297 296 296 295 294 293 293 293 293 292 292 291 291 290 290 290 290 289 289
315 319 320 320 321 321 320 319 320 320 320 320 320 320 318 317 316 315 315 316 316 317 318 317 318 318 316 316 317 314 311 310 309 308 308 308 309 308 308 308 308 307 306 305 306 308 308 307 307 306 307 307 307 307 307 307 306 305 304 304 302 301 300 299 299 298 298 297 296 295 294 294 293 293 293 292 292 291 291 290 290 290 290 289 289 289
316 318 319 319 321 321 321 321 320 319 319 320 320 319 318 318 318 316 316 315 315 316 317 318 318 317 317 319 319 317 316 313 309 309 310 309 308 308 309 310 309 308 307 307 308 309 309 309 308 308 308 308 307 307 308 308 307 306 305 304 303 301 300 299 298 298 297 297 296 295 294 293 293 293 292 292 291 291 290 290 290 290 290 289 288 288
315 317 318 318 320 321 320 320 319 319 321 321 321 320 319 318 318 318 317 316 315 314 315 317 317 317 317 318 319 318 317 314 312 313 314 313 311 309 309 309 309 308 307 308 309 310 310 309 309 308 308 307 306 306 307 307 306 306 305 303 302 301 300 299 298 298 297 297 296 294 293 293 293 293 292 292 291 291 290 290 290 290 289 288 288 288
314 315 316 317 318 319 318 317 319 322 321 321 323 323 319 318 318 319 319 318 316 315 315 315 316 316 315 315 314 313 314 314 315 315 315 315 313 312 311 311 309 308 308 309 309 309 309 308 308 308 307 306 306 306 307 307 306 305 303 302 302 301 300 299 298 298 297 296 295 294 294 293 293 293 292 291 291 290 290 291 290 289 289 288 288 288
316 314 314 315 316 317 317 318 321 322 319 320 321 316 313 317 320 318 319 319 317 316 316 315 314 314 313 311 311 312 313 313 313 312 311 311 311 311 312 311 309 309 309 309 309 309 309 309 309 308 307 306 307 307 307 306 305 304 303 302 302 301 300 299 298 298 297 296 295 295 294 294 293 293 292 291 291 291 291 291 290 289 288 288 288 287
316 315 314 315 316 316 318 319 319 319 319 320 320 314 312 317 320 319 319 318 316 315 315 315 315 315 314 311 310 311 311 310 310 310 308 308 309 310 310 310 309 309 309 309 309 309 309 308 307 307 307 307 307 307 306 305 304 303 303 302 301 300 299 298 298 298 297 296 296 295 295 294 293 293 292 291 291 291 291 291 290 289 288 288 288 287
316 315 315 316 316 315 318 319 319 320 320 320 320 315 310 311 315 317 318 318 317 315 313 314 316 315 314 312 309 307 308 310 312 311 308 308 309 308 308 308 308 309 309 309 308 307 306 306 306 307 307 307 306 306 305 304 303 303 302 302 301 300 299 299 299 298 297 297 297 296 295 294 293 292 292 291 291 292 292 291 290 289 289 288 288 287
313 314 314 315 316 315 317 319 320 321 320 319 318 312 306 306 310 313 316 318 315 309 307 312 316 315 314 311 305 305 310 313 314 311 308 308 308 307 307 308 308 308 308 307 307 307 307 307 307 307 307 306 305 305 304 303 302 301 301 301 300 300 299 299 299 298 298 298 297 296 295 294 293 293 292 292 292 292 291 291 290 290 289 288 288 287
312 314 313 314 316 316 316 318 318 319 319 318 314 307 303 305 309 314 319 318 310 303 302 307 311 311 310 307 304 307 312 313 313 311 309 308 307 307 307 308 309 309 309 308 308 308 308 308 308 307 307 305 304 303 302 301 300 300 299 299 299 299 299 299 299 298 298 297 296 295 295 294 293 293 293 293 292 292 291 291 290 290 289 288 288 287
312 313 313 314 316 316 316 318 317 318 318 316 311 305 303 307 312 317 319 312 304 302 304 306 307 308 308 305 305 308 309 308 309 311 309 309 309 308 308 308 308 309 309 308 308 308 308 308 307 306 304 303 302 301 300 299 298 298 298 298 298 298 298 298 298 297 297 296 295 295 295 294 294 294 293 293 292 292 291 291 291 290 290 289 288 287
312 313 312 314 315 316 316 317 317 318 315 310 305 302 304 312 317 314 309 303 301 304 306 307 307 307 307 305 305 306 307 306 307 309 309 309 309 308 308 308 308 308 308 307 307 307 307 306 305 303 302 301 300 299 298 297 297 297 297 297 297 297 296 296 296 295 295 295 295 295 294 294 294 294 294 293 293 292 292 292 291 291 290 289 289 288
313 313 312 313 314 315 315 315 317 319 311 304 304 305 307 313 313 305 301 301 302 304 306 306 307 307 306 305 305 305 306 306 306 307 308 307 307 307 307 307 308 308 308 307 307 307 305 304 302 301 300 299 298 297 296 296 297 297 297 297 296 295 295 294 294 294 294 294 293 293 293 293 293 294 293 293 293 293 293 292 292 291 291 291 290 290
314 314 314 314 314 314 316 316 314 311 304 301 305 309 308 308 306 303 302 303 304 304 305 305 306 307 306 305 305 305 305 305 305 306 306 306 306 307 307 308 308 308 307 306 305 304 302 301 300 298 297 297 296 296 296 296 296 296 296 295 294 293 293 293 293 293 292 292 292 292 292 292 292 292 292 292 293 293 293 292 292 292 292 292 291 291
313 310 311 314 312 310 312 312 306 301 299 299 302 303 303 303 304 305 305 305 305 305 304 304 304 305 306 306 305 304 304 304 304 304 304 305 305 305 305 306 306 305 304 303 302 300 299 298 297 296 296 296 296 296 296 296 295 295 294 293 292 292 292 292 292 292 291 291 291 291 290 290 290 291 291 291 291 291 291 291 291 291 291 291 291 290
306 303 307 312 309 305 304 304 301 299 300 300 301 301 302 303 305 305 306 305 305 305 303 302 301 302 303 305 305 304 304 304 304 303 302 302 301 301 301 301 302 301 301 300 299 298 297 296 296 296 296 296 296 296 295 294 293 293 292 292 291 291 291 291 291 291 291 291 291 290 290 290 290 290 290 290 290 290 290 290 290 290 290 289 289 289
303 302 307 310 310 309 308 305 301 299 300 301 302 303 303 304 305 306 306 306 305 304 303 300 299 299 301 303 303 303 303 302 301 301 299 299 298 298 298 298 299 299 298 298 297 296 296 295 295 295 296 296 296 295 293 292 292 292 291 291 291 291 291 291 291 291 291 291 291 290 290 290 290 290 290 290 290 290 290 290 290 289 289 289 289 289
305 304 307 308 307 306 304 300 296 296 298 301 302 304 305 306 306 306 306 305 304 302 300 299 298 298 298 300 301 301 301 300 299 299 298 297 297 296 296 296 296 296 296 296 295 295 295 295 295 295 295 295 294 293 292 292 292 291 291 291 291 291 291 291 291 291 291 291 290 290 290 290 290 290 290 290 290 290 289 289 290 289 289 289 289 289
304 305 306 306 303 301 299 297 295 298 301 301 302 304 306 307 307 306 305 304 301 299 298 298 298 298 297 297 298 298 298 298 298 298 297 296 295 295 295 295 295 295 294 294 294 294 294 294 294 294 294 293 292 292 292 292 292 291 291 291 291 291 291 291 291 291 291 290 290 290 290 290 290 290 290 290 290 289 289 289 289 289 289 289 289 289
303 305 305 304 304 304 302 299 299 303 306 304 303 306 307 307 306 305 304 301 299 298 299 299 298 297 297 296 296 296 296 297 297 297 296 295 295 295 294 294 294 294 294 293 293 293 293 293 293 293 292 292 292 292 292 292 292 291 291 291 291 291 291 291 291 291 291 291 290 290 290 290 290 290 290 290 289 289 289 289 289 289 289 288 288 288
303 305 304 304 306 307 303 300 300 303 306 305 304 306 307 306 306 305 304 301 299 298 299 298 297 297 296 296 296 296 296 296 296 296 295 294 294 294 294 294 294 293 293 293 293 293 293 293 292 292 292 292 292 292 292 291 291 291 291 291 291 291 291 291 291 291 291 291 291 290 290 290 290 290 290 290 289 289 289 288 288 288 288 288 288 287
Wind_Speed
7 3 2 4 6 7 8 9 9 7 5 4 2 2 4 4 5 4 3 5 6 4 5 9 8 9 10 9 12 19 21 21 23 22 23 27 29 31 31 32 32 31 30 27 25 21 18 17 16 16 15 14 14 14 15 14 15 16 16 17 17 18 18 18 17 17 18 18 17 16 17 17 16 16 15 15 14 13 13 11 10 11 10 9 9 8
5 4 5 8 9 8 9 9 8 7 6 5 4 3 4 3 5 5 2 3 3 3 5 6 6 9 10 9 12 13 13 17 25 26 27 30 31 32 33 32 31 30 29 28 27 24 20 19 19 18 17 16 16 16 16 16 17 18 17 19 20 21 21 19 17 17 18 17 16 17 17 16 16 16 16 16 15 14 14 13 11 10 9 9 9 8
3 3 9 12 9 7 7 6 6 6 6 6 3 2 3 3 4 5 3 2 1 3 5 5 5 8 10 9 11 13 14 21 32 34 34 33 32 33 34 33 32 31 30 29 29 26 22 21 20 20 19 18 18 17 18 18 19 19 19 19 20 19 19 18 18 19 18 18 18 16 15 14 14 16 15 15 15 14 14 14 12 11 11 12 12 12
3 5 11 15 9 6 7 6 5 3 2 4 3 3 3 4 2 3 4 4 2 2 3 5 6 7 9 8 10 19 23 23 29 34 35 33 33 36 37 37 36 36 35 33 31 29 25 23 22 22 21 20 20 20 21 21 21 21 20 19 18 18 18 18 19 20 19 19 20 17 16 16 15 16 16 17 17 16 16 16 16 16 16 16 16 15
7 7 8 9 9 7 6 6 5 5 2 3 4 5 4 3 5 6 4 3 3 4 3 3 6 6 7 8 9 14 15 17 23 26 27 30 32 35 35 37 38 38 37 35 33 31 28 26 24 23 23 21 21 21 22 22 22 21 19 18 17 18 19 19 19 20 19 20 21 21 21 21 20 20 20 21 22 20 20 20 20 19 18 17 16 15
9 10 6 3 6 8 7 6 6 7 4 4 4 7 7 7 8 7 2 3 4 5 3 2 4 6 4 6 8 6 4 8 14 15 22 30 31 32 33 36 39 38 36 35 33 31 29 27 25 25 24 23 22 22 22 22 22 21 19 18 18 18 20 19 19 19 20 21 22 23 25 26 26 26 24 24 24 24 23 22 21 20 19 17 16 15
5 10 9 5 6 8 7 7 5 7 5 3 4 6 7 8 8 7 3 1 1 4 3 3 1 7 6 6 9 8 7 11 10 9 18 27 30 33 36 38 39 38 37 34 32 30 28 27 27 26 26 25 24 24 24 24 23 21 20 20 19 20 20 19 19 19 20 21 22 23 25 27 28 29 28 26 25 24 23 22 21 20 19 17 15 14
3 8 9 7 7 6 7 6 6 7 7 4 6 5 5 5 6 5 2 2 3 2 4 3 2 5 9 7 6 8 10 13 12 10 14 23 28 32 34 36 38 39 38 35 33 31 28 27 27 28 27 26 25 25 25 25 24 23 22 22 22 22 21 20 20 21 21 22 24 26 27 28 28 28 29 27 26 24 22 21 20 19 18 16 14 12
2 8 9 10 7 5 6 5 6 9 6 5 5 5 6 6 5 3 4 1 1 2 4 3 2 3 9 6 3 5 7 10 13 12 13 20 27 28 30 33 35 37 36 35 34 32 29 27 28 28 27 26 27 27 26 26 25 24 24 24 24 24 22 22 22 23 23 24 26 29 29 30 28 27 27 27 25 24 22 20 19 18 17 15 13 12
1 6 7 8 7 6 5 1 3 7 5 4 4 6 5 4 4 5 4 2 3 2 6 5 4 4 7 4 2 3 4 8 11 10 12 18 24 27 29 31 32 33 33 33 32 30 27 27 28 28 27 27 28 28 27 27 26 26 25 26 26 26 24 23 25 26 26 26 28 29 29 30 29 28 27 26 25 23 21 19 18 17 15 14 12 11
1 2 1 2 4 5 6 3 3 2 6 7 6 6 6 5 5 4 3 4 2 4 6 9 10 7 6 4 4 4 5 7 7 7 9 12 18 26 30 31 32 32 32 32 29 27 26 26 28 28 28 29 29 29 30 29 28 27 27 27 27 26 25 24 26 27 28 28 28 28 28 27 27 26 25 25 24 22 20 18 17 16 14 13 12 10
4 1 1 1 5 6 7 4 5 4 5 8 5 4 3 4 4 5 4 4 0 5 6 10 10 8 7 6 3 5 5 5 5 6 8 9 15 25 30 32 33 33 32 31 29 28 28 28 30 30 30 31 31 32 32 31 30 29 29 29 28 27 26 26 27 29 30 30 28 27 26 24 23 22 21 21 20 20 19 17 15 15 14 13 12 10
2 3 2 1 4 7 7 4 3 5 3 5 5 6 3 2 3 3 2 0 3 6 5 5 6 5 9 8 8 11 11 10 8 7 9 12 17 23 29 32 34 33 33 32 31 31 31 31 32 32 32 33 33 34 34 33 32 31 31 31 29 28 28 28 29 30 30 30 29 28 26 24 22 20 19 18 18 17 17 15 14 13 12 12 11 10
3 5 1 2 3 8 9 6 3 2 1 5 6 6 5 2 1 3 3 2 4 5 5 1 4 3 6 6 11 15 15 17 16 13 12 14 18 23 27 31 32 33 33 33 34 33 33 33 32 31 32 33 34 34 34 34 33 33 33 32 30 29 30 31 31 30 30 30 29 28 25 23 22 20 19 17 16 16 15 14 13 12 12 11 10 9
5 5 5 7 4 10 13 9 7 5 5 5 5 6 5 5 4 4 4 3 4 3 4 1 3 4 3 3 7 8 9 10 9 10 10 12 17 21 25 28 31 33 33 33 34 34 34 34 32 31 32 33 34 35 35 35 35 35 34 33 33 33 33 33 33 32 31 31 30 28 26 24 22 20 19 18 16 15 15 14 13 12 12 10 9 9
6 6 7 7 5 12 13 7 7 8 3 3 3 5 3 5 5 3 3 4 2 2 3 2 3 5 5 5 6 4 4 3 1 5 9 12 16 20 24 28 30 32 33 34 34 34 34 34 33 32 32 33 35 36 36 36 37 37 36 35 35 35 36 35 35 34 33 32 30 29 27 25 23 21 20 19 18 16 15 14 13 12 12 10 9 9
4 4 3 2 3 6 8 5 7 7 4 1 3 4 3 4 5 2 3 1 2 2 4 3 5 5 3 7 8 6 4 3 3 5 10 13 17 21 25 28 31 32 33 33 34 33 33 34 34 33 32 34 36 37 37 37 38 37 37 37 37 37 37 37 37 35 34 32 31 29 28 26 24 22 20 19 18 18 16 15 14 13 12 11 10 10
5 2 3 2 1 3 2 3 3 3 6 5 4 5 2 2 2 2 1 3 2 4 4 4 7 5 2 6 4 3 4 7 8 7 7 10 16 22 26 29 31 32 32 32 32 32 32 33 35 34 33 34 36 37 38 38 38 37 36 38 39 39 39 39 37 36 35 33 32 30 28 26 24 22 20 19 18 18 17 16 15 14 12 12 11 11
4 2 3 1 2 2 2 4 3 3 4 5 4 5 4 1 1 2 2 2 1 4 5 3 7 6 6 5 1 3 8 11 10 8 6 10 18 24 27 30 31 31 32 33 33 32 33 34 34 34 34 35 37 38 38 38 38 37 38 38 39 40 39 39 38 36 35 33 31 29 28 26 24 22 21 20 19 18 17 16 15 15 14 13 12 12
3 3 3 1 0 1 2 2 4 2 0 2 2 3 2 2 4 4 3 3 3 3 4 3 3 4 5 7 7 9 12 13 12 10 9 14 23 28 29 31 32 33 34 35 34 33 33 34 34 34 35 36 38 39 39 39 39 39 39 40 40 40 39 39 38 37 35 33 31 29 28 26 25 23 22 21 19 18 17 16 16 15 14 14 13 12
2 2 3 2 2 1 2 4 8 11 7 3 4 5 3 1 2 1 2 3 4 3 3 4 6 4 4 5 8 11 12 12 13 11 11 19 27 30 31 33 33 35 36 35 34 33 33 34 34 34 35 36 38 39 40 40 40 40 41 41 41 40 40 40 39 37 35 33 32 30 29 27 26 25 23 22 21 19 18 17 17 15 15 14 14 13
3 3 3 2 1 3 6 6 7 9 9 7 7 8 8 5 4 1 4 2 3 3 4 3 8 8 4 3 6 9 9 11 15 15 14 20 28 31 33 34 34 35 35 34 33 33 34 34 34 35 36 38 40 41 41 42 42 42 42 42 42 41 41 40 39 38 36 34 33 31 30 28 27 26 25 24 23 21 20 19 18 17 16 15 14 13
4 3 3 3 4 5 6 5 2 2 3 4 3 5 6 6 6 5 6 3 2 4 3 1 6 8 2 2 4 6 8 11 16 18 16 21 28 31 33 34 34 34 33 32 32 33 34 33 34 36 38 39 41 42 43 43 43 44 43 43 43 42 42 41 39 38 36 35 34 32 31 29 28 28 26 25 24 22 21 20 19 18 17 16 16 14
3 3 3 1 2 2 3 5 5 4 4 3 1 4 6 7 6 6 5 3 2 5 3 2 7 8 1 0 2 3 6 8 12 16 19 21 24 27 31 34 34 34 33 33 33 33 34 33 34 37 39 41 43 43 44 45 45 45 44 44 44 43 43 42 40 38 37 36 35 34 32 31 30 29 28 26 25 23 23 21 20 19 19 18 17 16
6 3 3 2 2 3 2 3 3 3 0 3 4 5 8 8 5 2 1 3 4 8 7 4 10 8 1 3 3 4 4 4 6 12 18 20 21 25 30 33 34 34 34 34 35 35 35 35 36 39 41 43 44 45 45 46 45 45 45 45 45 44 43 42 41 39 38 37 36 35 34 33 32 31 29 27 26 25 24 22 21 21 21 20 19 17
10 4 6 6 6 8 7 5 4 3 2 3 3 6 10 11 10 6 1 4 9 7 8 8 14 8 2 3 4 4 4 4 5 8 14 20 23 25 28 32 35 35 36 37 37 37 36 36 38 40 42 44 45 45 46 46 46 46 45 45 45 45 44 43 42 40 39 38 37 36 35 35 34 32 30 28 27 26 25 24 23 23 22 21 20 18
4 3 9 11 10 12 12 7 6 8 6 6 9 11 13 14 14 10 5 9 8 2 5 14 14 12 11 5 4 6 4 5 7 7 12 18 22 25 27 31 35 37 38 39 39 39 38 38 40 42 43 45 46 46 45 46 46 46 46 46 46 45 45 44 42 41 40 39 38 37 37 36 35 33 31 29 28 27 26 25 25 25 24 22 21 19
4 3 11 13 15 17 17 12 10 12 12 14 15 14 14 15 15 14 15 14 7 5 11 16 8 13 22 12 8 10 7 5 8 10 16 20 22 26 28 30 33 35 37 37 38 40 40 41 42 42 44 45 46 46 45 45 45 45 45 46 46 46 45 44 43 42 40 40 39 39 38 37 36 34 32 30 29 28 27 27 27 26 24 23 22 21
3 6 11 12 16 18 20 15 11 13 12 12 14 16 15 16 18 21 23 18 9 8 18 17 10 17 24 10 10 12 10 11 16 20 23 22 23 26 26 28 32 35 37 38 40 42 41 41 41 42 44 45 46 46 46 45 45 45 46 47 46 47 46 45 44 43 41 41 41 40 39 38 36 34 33 32 31 30 29 29 28 27 25 24 23 22
2 6 7 9 14 17 20 15 9 11 9 6 11 14 15 19 24 25 22 17 13 15 23 21 15 21 19 6 9 15 18 21 21 20 22 23 24 26 26 30 34 36 39 41 42 43 41 41 41 42 44 46 46 46 45 43 43 44 46 47 47 47 47 46 45 43 43 43 42 41 40 38 37 35 34 33 32 31 31 30 29 28 27 26 24 24
2 3 3 6 8 14 18 13 7 9 9 8 9 13 17 22 21 17 14 14 15 19 24 21 18 22 13 6 9 14 15 16 14 15 21 25 27 27 28 32 35 37 40 42 42 41 40 41 42 44 45 45 45 45 43 40 42 44 45 46 47 48 48 47 46 44 44 44 43 42 41 39 38 36 35 34 33 33 32 31 30 29 28 27 26 26
3 2 2 5 5 13 14 8 7 7 6 6 12 19 23 19 12 10 12 15 16 18 20 16 15 19 11 6 7 10 10 12 14 17 23 26 28 30 31 35 38 39 41 41 41 41 41 43 43 43 44 43 44 43 39 37 40 42 43 44 46 48 48 47 46 45 45 44 43 43 42 40 38 36 35 35 34 34 33 32 31 30 30 29 28 27
5 4 2 5 7 14 11 7 10 6 3 7 17 24 24 17 12 12 13 15 17 15 14 13 15 19 10 5 8 9 8 11 16 21 25 27 29 33 36 39 41 42 43 43 42 43 42 42 41 40 40 41 42 39 34 33 36 37 39 42 45 46 46 46 45 45 45 45 44 43 42 39 38 37 36 36 35 34 33 32 32 32 31 30 29 28
4 5 5 5 6 12 7 8 9 5 8 11 10 12 16 18 19 18 16 18 18 15 14 15 16 17 10 6 10 11 11 16 22 29 33 33 33 35 38 41 42 42 43 42 42 41 39 38 38 37 37 38 37 33 29 29 31 32 36 39 41 42 43 43 44 45 45 45 44 43 40 39 38 37 37 36 35 34 34 33 33 33 32 31 30 29
6 6 4 3 3 5 1 7 5 9 11 8 2 2 9 14 16 18 18 20 19 17 18 19 19 20 15 11 13 15 19 25 30 34 36 36 38 38 38 42 43 42 42 41 41 40 37 35 34 34 34 33 29 25 24 25 27 29 32 33 34 36 37 39 42 44 44 45 43 41 40 39 38 38 37 36 36 35 35 34 34 34 33 31 31 30
9 7 4 2 3 2 1 5 9 6 4 6 5 1 2 2 5 8 12 17 20 19 19 19 22 22 18 17 20 22 23 25 25 29 31 32 35 37 38 42 43 40 38 36 34 32 29 27 27 27 26 23 20 19 20 22 24 25 26 26 28 30 32 35 38 40 41 42 41 40 40 39 39 39 38 37 37 36 35 35 36 35 32 31 31 31
9 7 5 4 5 4 5 9 7 5 9 13 9 5 6 6 8 8 8 13 16 16 16 16 19 20 17 21 26 24 19 14 13 18 22 24 28 33 35 36 35 31 28 26 25 23 22 22 21 19 17 15 15 16 16 18 19 20 22 23 25 27 28 30 32 33 36 37 38 38 38 39 39 39 38 38 37 36 36 36 36 34 32 32 32 33
10 9 8 6 5 5 7 8 5 5 11 12 6 5 8 8 8 9 6 10 9 10 16 17 17 18 16 17 18 14 10 6 7 11 17 21 24 26 26 25 24 22 20 19 20 20 19 18 16 13 12 11 12 13 13 14 16 18 19 21 22 23 25 26 27 28 30 31 32 33 34 35 37 38 37 37 37 36 36 36 35 33 32 32 33 32
9 7 7 7 5 4 6 7 6 7 9 6 2 2 3 5 8 9 3 8 5 2 10 15 16 18 17 15 14 12 8 7 9 10 15 21 21 22 21 19 17 16 14 14 15 15 15 14 12 10 10 10 11 12 13 14 15 16 17 18 19 20 21 22 23 24 24 23 25 27 29 31 33 35 35 35 35 35 35 34 33 32 31 31 32 32
6 5 5 7 7 7 8 7 5 6 5 3 4 3 1 6 11 8 1 6 4 5 5 8 12 14 13 12 15 11 7 9 7 3 11 19 20 19 18 14 12 12 12 12 13 12 11 10 9 9 9 10 11 12 13 14 15 15 15 15 17 18 18 17 17 16 16 17 20 22 24 26 29 30 31 31 31 32 32 32 31 31 30 30 31 31
4 4 4 7 9 10 11 8 5 4 4 4 6 7 8 9 8 5 5 3 2 6 5 3 8 10 8 14 17 11 7 4 2 5 11 16 17 16 14 12 11 11 11 11 11 10 9 8 8 8 9 10 11 12 13 14 14 14 13 14 15 15 12 10 10 11 12 14 16 18 20 22 24 25 26 27 28 29 30 30 29 29 29 29 30 30
4 3 2 6 8 8 8 7 5 5 4 5 6 8 9 7 3 5 4 3 1 2 4 3 3 7 10 16 17 11 7 3 4 7 9 11 13 15 14 13 12 11 10 9 8 8 8 9 9 10 11 12 13 13 13 13 13 12 12 12 12 9 6 6 8 10 11 13 14 15 17 18 20 21 22 23 25 26 27 27 27 27 27 28 29 29
6 5 3 5 6 3 4 5 5 5 3 10 11 6 4 4 4 5 6 4 2 2 5 5 1 5 10 14 12 9 7 6 6 6 8 10 11 12 12 12 11 10 10 9 9 10 10 10 12 13 14 14 14 13 12 12 11 11 11 10 7 5 6 7 9 10 11 12 13 14 15 16 17 18 20 21 22 23 24 24 25 26 27 28 28 29
5 5 4 5 5 4 5 6 4 2 2 7 6 2 4 7 7 7 6 3 3 3 3 3 2 5 9 11 11 10 8 7 7 7 8 10 10 9 10 10 10 10 11 11 11 12 13 13 14 14 13 13 13 12 12 11 10 10 9 7 6 6 7 8 9 10 11 12 12 13 13 14 15 16 18 19 20 21 22 23 24 25 26 27 29 30
3 3 3 3 2 2 3 3 2 1 1 3 2 2 7 10 7 5 5 4 4 2 0 2 3 4 8 10 10 10 9 8 8 9 9 10 11 10 11 11 11 12 12 12 12 12 13 13 12 12 13 13 13 12 12 11 10 8 7 6 6 7 8 9 10 11 11 11 11 12 13 14 15 16 17 18 19 20 21 22 23 24 25 27 28 30
1 1 2 2 1 1 1 2 1 2 2 3 3 5 9 9 5 2 4 3 3 2 1 2 3 3 7 9 10 10 10 9 10 10 11 12 12 12 12 13 13 13 12 13 13 12 12 12 11 12 13 13 13 13 11 9 8 7 6 7 8 9 9 10 11 11 11 11 11 12 13 14 15 16 17 19 20 21 22 22 23 24 26 28 30 31
1 2 2 3 3 3 1 1 1 1 4 5 3 4 7 7 3 1 2 2 2 3 3 2 3 4 6 7 8 10 11 11 11 12 13 13 13 14 14 14 14 13 12 12 11 11 12 12 12 12 12 12 12 12 10 8 7 6 7 8 9 10 10 11 12 12 13 13 13 14 15 15 16 17 19 20 22 23 24 25 26 27 28 30 31 32
2 5 3 2 2 2 1 2 2 3 7 10 8 8 9 8 5 4 4 4 4 4 5 3 3 3 4 5 6 7 9 10 10 11 13 14 14 15 16 15 15 14 13 12 11 11 10 10 11 11 11 11 11 10 9 8 7 7 7 7 8 9 10 11 13 14 16 16 17 18 19 19 19 20 21 22 24 25 27 28 29 30 31 31 32 33
5 6 4 2 3 1 2 3 2 3 6 12 15 15 15 12 10 9 9 9 8 6 5 4 2 1 2 3 3 4 6 8 9 9 11 14 15 16 16 15 14 13 12 11 11 10 9 9 9 9 10 10 11 10 10 10 9 9 9 8 9 9 10 11 12 14 15 17 19 20 21 23 24 24 25 26 27 28 30 31 32 33 33 34 35 36
6 5 2 3 4 2 3 6 9 4 2 10 19 23 22 18 15 14 14 13 11 8 5 4 2 1 1 1 1 2 4 7 9 10 12 14 15 15 14 14 13 12 11 11 10 10 9 9 9 9 10 11 12 12 13 12 12 12 11 11 11 11 12 13 14 15 16 17 18 20 21 22 23 25 27 29 30 32 33 34 35 35 36 36 37 37
6 7 6 5 4 4 5 14 19 11 3 8 16 20 23 23 19 19 20 16 12 9 6 4 4 3 2 2 2 3 4 7 10 13 14 14 14 13 12 12 12 11 11 11 11 10 10 11 11 12 13 13 14 15 15 15 14 14 14 14 14 14 14 15 16 18 19 20 21 23 23 24 24 25 26 27 29 32 34 35 36 37 37 37 37 37
Wind_Direction
158 130 147 197 211 200 203 202 205 209 190 193 197 200 209 216 273 268 260 246 174 158 240 224 230 250 252 255 248 235 219 215 224 228 227 222 216 214 215 216 216 217 219 219 221 220 216 216 216 221 226 224 220 215 210 200 189 189 185 175 171 169 174 185 189 183 181 188 189 182 179 179 179 181 182 183 186 180 173 174 174 173 175 181 189 195
157 173 218 221 215 198 204 212 213 224 232 247 247 258 264 236 259 270 274 260 180 173 262 256 251 263 256 255 263 241 205 215 225 223 226 223 216 215 215 215 214 214 216 217 219 218 214 213 212 216 220 219 218 211 205 196 188 192 190 185 185 183 184 191 189 181 182 185 183 182 185 188 186 184 188 193 194 187 177 172 174 178 181 183 183 178
191 224 236 232 221 202 227 228 203 219 228 231 219 200 256 259 275 295 315 304 171 187 260 282 267 265 263 257 264 245 212 223 230 227 229 223 214 214 214 213 212 211 213 214 217 218 214 212 209 212 215 215 214 207 202 195 191 195 196 195 196 194 191 188 183 183 185 184 185 192 193 191 187 180 182 188 185 177 169 165 167 164 158 153 149 141
212 239 236 231 218 202 248 251 189 188 218 207 176 156 233 259 268 285 298 291 263 228 255 289 282 267 268 263 260 251 237 236 240 237 234 226 219 220 219 217 215 213 213 213 216 217 214 211 209 211 212 212 210 205 201 198 197 201 203 203 201 195 189 186 186 189 193 191 188 188 182 176 174 168 166 167 162 160 159 155 151 146 141 140 137 132
214 229 229 212 202 200 225 236 184 169 252 260 201 187 213 240 226 230 272 312 327 325 329 327 306 278 256 253 255 259 251 247 248 241 234 230 227 227 223 218 218 218 219 217 216 217 215 212 211 211 211 211 209 206 204 201 201 204 203 202 198 191 190 193 194 193 193 188 181 176 170 164 163 160 158 157 152 151 152 148 144 141 138 138 136 133
230 234 233 176 192 203 204 219 191 169 209 280 242 203 208 223 233 238 279 18 11 319 315 53 313 283 264 247 253 279 297 258 251 236 229 230 226 225 221 215 216 219 220 221 221 220 217 213 211 210 209 209 207 204 203 201 201 201 199 196 193 190 191 193 193 191 188 182 176 171 165 161 160 156 153 153 150 149 150 148 145 141 138 139 137 133
221 215 217 194 188 194 199 221 213 169 162 256 247 198 200 215 231 247 256 341 285 263 290 82 164 275 285 258 247 260 272 263 255 236 231 228 220 219 219 215 214 215 215 217 219 221 218 214 211 210 209 208 206 203 200 200 199 197 194 191 189 187 185 186 185 184 182 178 174 169 162 160 159 154 151 152 151 151 152 149 146 142 139 139 137 133
170 180 194 191 181 179 189 215 217 166 144 228 242 169 153 175 204 226 188 183 222 247 322 17 123 273 281 264 240 229 242 259 257 246 239 229 220 217 216 214 213 214 215 214 214 217 217 216 214 212 210 206 204 202 200 199 197 194 191 189 187 184 183 185 184 183 182 178 172 166 162 160 160 157 153 153 154 154 154 150 147 144 142 139 137 134
157 167 181 178 175 184 195 217 195 156 146 236 224 138 122 135 149 131 102 124 325 12 304 298 111 265 271 268 264 224 226 252 254 245 242 232 221 214 211 211 212 214 216 217 217 218 216 216 214 212 210 205 202 202 201 199 195 193 191 188 187 186 187 189 187 184 180 176 170 165 163 162 161 160 156 155 157 156 155 153 149 147 145 142 140 135
194 183 185 164 173 198 195 230 168 161 180 204 149 88 71 75 78 70 79 77 27 342 247 222 170 243 269 257 230 240 229 240 249 245 245 238 224 214 209 208 209 211 214 216 219 220 219 217 212 209 207 204 201 201 201 198 195 193 191 188 187 188 190 192 189 183 176 172 170 166 167 166 165 164 161 159 160 158 158 157 152 150 147 144 142 137
317 167 193 148 170 172 144 83 36 154 167 137 96 56 41 22 33 40 39 74 54 276 237 207 193 204 267 272 199 217 227 220 233 248 255 243 219 212 211 208 207 208 210 212 213 215 217 216 210 206 205 203 201 200 199 198 196 194 191 188 188 189 192 193 189 181 174 170 170 170 171 172 170 169 168 165 164 161 162 162 155 152 150 146 143 139
348 84 241 167 153 127 107 79 22 29 120 114 89 78 59 345 14 22 2 55 143 255 236 214 196 186 234 262 235 245 256 222 203 213 239 236 212 209 210 210 209 208 209 209 210 211 212 211 208 204 203 202 201 200 198 198 198 195 191 189 189 191 192 191 187 181 174 170 172 174 175 177 176 175 174 172 170 166 165 167 161 156 154 151 147 142
309 238 226 128 167 157 124 92 17 0 40 97 103 107 106 296 354 357 310 115 228 250 255 220 176 192 238 253 257 263 271 264 245 228 229 228 216 209 207 208 208 208 209 210 210 211 211 211 209 204 202 202 202 201 198 199 198 194 191 189 191 192 190 187 185 181 176 173 175 176 177 179 180 179 177 177 175 170 169 170 165 160 157 154 149 143
267 297 233 133 251 194 165 154 182 261 171 147 137 138 156 178 226 265 244 249 257 259 283 226 152 232 272 265 247 247 258 266 268 264 247 230 221 213 207 206 206 207 210 211 212 212 212 213 211 207 204 202 202 201 199 199 198 193 190 190 192 192 188 186 184 181 178 178 178 177 178 181 182 180 178 179 179 174 170 169 165 159 155 153 147 142
212 288 203 182 205 185 186 192 170 142 159 178 151 138 155 156 178 222 205 218 254 272 296 290 157 203 219 246 240 242 265 271 268 261 241 224 218 210 203 201 203 206 209 211 212 213 214 215 213 211 207 204 202 202 201 200 196 192 190 190 191 190 187 185 183 182 181 181 180 178 180 184 184 183 180 179 181 178 173 169 164 160 155 153 150 146
198 263 221 187 155 167 189 195 131 113 145 221 124 117 173 184 181 221 211 193 201 289 282 221 217 219 212 259 259 248 283 308 272 229 207 202 201 195 195 198 202 206 207 210 212 213 215 216 215 214 209 205 202 202 202 199 195 192 191 190 190 189 188 185 183 183 184 183 183 181 183 185 185 185 185 183 180 177 173 169 165 162 159 158 158 156
181 275 266 136 104 169 191 184 148 154 178 173 136 169 204 182 164 203 268 327 63 278 258 199 244 283 299 276 253 218 235 300 294 230 197 194 191 190 196 200 204 207 208 211 212 213 216 216 215 214 210 205 203 202 202 199 196 193 191 190 189 189 189 187 185 185 186 186 186 184 185 187 188 188 189 187 183 177 172 170 168 169 167 165 166 165
163 252 295 104 128 234 188 129 134 135 135 132 184 201 156 66 104 127 263 344 27 264 266 206 232 258 253 266 270 163 207 257 260 236 214 203 194 196 202 204 208 209 209 212 213 215 217 216 215 214 209 205 204 203 202 200 197 194 193 192 190 190 190 189 187 187 189 189 189 188 187 188 190 190 190 188 185 181 176 174 174 175 175 173 174 174
155 196 293 60 171 256 45 110 111 52 108 136 183 186 130 112 199 128 169 232 192 253 280 239 227 228 210 227 256 162 209 232 238 226 223 216 205 206 207 206 209 209 209 212 213 215 216 215 215 212 207 204 203 204 202 200 198 194 194 194 193 193 192 191 190 190 191 192 191 191 190 191 192 191 189 189 187 184 181 180 180 180 182 181 180 181
155 189 262 326 226 253 25 122 160 186 237 58 90 160 130 136 172 168 180 171 158 228 273 278 241 218 210 204 192 202 212 216 221 214 215 220 214 211 208 207 209 210 210 212 213 215 214 213 213 210 206 204 203 203 202 199 197 195 194 195 195 195 194 194 194 193 193 193 193 193 193 193 193 192 191 191 189 187 184 185 187 186 187 189 188 188
125 199 224 295 322 182 174 195 188 186 183 151 151 179 186 119 119 178 221 150 141 189 234 276 276 244 207 197 192 204 212 211 212 210 217 223 219 215 212 211 212 212 213 215 214 214 213 211 212 209 205 204 203 203 202 199 197 196 195 196 196 197 196 196 196 196 196 195 195 196 196 196 195 194 194 193 192 191 190 191 192 192 194 196 196 197
175 191 170 161 228 202 219 239 217 197 186 174 180 185 181 168 133 173 254 213 149 202 196 230 278 264 220 198 198 199 206 212 212 209 217 223 220 218 216 214 216 217 216 216 215 214 213 211 210 207 204 204 204 203 201 200 198 197 197 197 198 199 200 200 200 199 199 198 197 198 199 199 198 198 198 196 194 194 195 197 197 198 201 202 204 206
153 122 134 173 205 213 242 275 284 195 159 145 177 179 173 183 166 175 232 224 168 246 213 148 282 273 227 165 205 209 215 225 224 217 218 225 223 220 217 215 218 221 219 218 217 215 214 211 209 207 205 205 205 203 202 201 200 199 199 200 201 202 203 203 202 202 201 200 200 200 201 202 203 202 201 199 199 199 200 202 202 205 207 209 211 213
123 125 151 219 284 300 312 331 4 35 73 98 199 182 181 204 193 184 208 175 177 241 186 131 267 263 257 244 263 267 249 246 243 228 223 228 226 221 218 216 217 220 219 218 217 215 214 212 209 207 207 206 205 204 203 202 202 201 202 202 204 205 206 205 204 204 204 202 202 202 203 205 206 206 204 203 204 204 205 206 207 210 212 214 217 220
171 171 142 141 297 312 324 334 351 360 100 196 221 201 201 207 184 171 128 127 245 235 164 176 256 249 320 329 325 344 311 277 262 235 228 231 229 222 219 217 217 217 216 215 215 214 213 212 210 209 208 207 206 205 205 204 204 204 204 205 207 208 208 207 207 207 206 204 203 204 206 208 209 209 208 208 208 208 209 211 212 214 216 218 221 225
170 170 155 172 220 234 234 222 190 179 182 210 219 193 204 207 189 192 211 203 239 227 150 203 248 254 339 329 295 316 320 290 269 234 226 229 230 227 221 217 216 214 214 214 213 213 213 211 211 210 210 209 208 207 206 206 206 206 207 208 210 211 211 210 209 208 208 207 206 207 209 211 212 212 212 212 212 212 214 215 217 219 221 222 225 229
138 175 183 192 213 227 241 234 170 150 157 198 212 195 198 208 196 193 222 223 221 170 193 227 239 262 270 243 239 267 246 242 261 243 227 226 226 227 224 219 217 214 214 213 211 212 212 211 211 211 211 211 210 209 209 209 209 209 210 211 212 213 213 212 211 210 210 210 209 211 213 215 215 215 215 216 216 216 218 219 221 223 225 226 228 232
85 193 199 207 217 227 243 234 175 163 181 196 203 199 199 203 194 196 218 221 176 127 248 241 198 244 258 231 207 246 236 225 248 237 230 227 222 225 224 219 216 213 213 212 211 212 212 211 212 212 212 212 212 212 212 212 212 213 214 215 215 215 215 214 214 212 212 212 213 215 217 218 218 218 218 219 219 220 221 222 224 226 227 229 232 235
120 205 206 210 223 234 244 234 183 176 197 199 198 201 199 195 196 206 217 218 176 178 250 251 189 227 254 231 195 226 216 212 228 229 230 228 223 223 219 214 213 211 211 212 211 212 212 213 213 213 214 214 213 213 213 213 214 216 216 218 218 218 218 217 216 215 215 215 216 218 219 220 220 220 220 221 221 222 223 225 227 228 229 231 234 236
159 211 198 194 221 239 243 235 187 178 202 207 201 204 202 201 205 210 215 217 208 217 244 252 240 249 257 206 192 225 220 222 231 230 227 224 221 219 213 213 215 211 211 212 212 212 214 215 214 213 214 214 214 215 215 215 217 218 219 220 221 221 221 220 219 218 218 220 220 221 221 221 221 222 222 222 224 225 226 227 229 230 231 233 235 236
197 218 138 152 214 246 244 234 184 182 209 225 222 218 216 214 212 211 214 216 219 230 243 250 259 265 257 165 197 231 221 221 229 223 221 222 220 215 211 214 216 213 212 213 213 214 215 215 215 214 214 215 215 216 216 217 220 221 222 223 224 224 224 222 222 221 222 223 224 223 223 222 223 223 224 225 226 227 228 229 231 233 234 234 235 235
194 223 74 123 210 247 243 212 170 185 212 244 249 237 227 221 210 203 213 215 214 226 241 247 254 259 251 160 202 225 198 205 220 216 220 224 220 215 213 216 218 216 214 213 212 214 215 215 215 215 215 216 216 216 218 221 223 223 225 227 227 227 226 225 224 225 226 226 226 226 225 224 224 225 226 227 228 229 230 231 233 235 236 236 236 235
170 181 172 155 210 251 246 165 147 160 176 237 245 240 233 225 210 208 219 224 217 217 231 234 238 250 250 161 201 221 193 204 219 219 222 225 221 219 220 222 222 219 215 214 214 214 215 216 216 216 217 218 218 218 221 226 228 229 230 231 230 230 228 227 227 228 229 229 228 228 227 226 227 228 229 230 231 231 232 234 236 238 238 238 237 237
174 188 204 170 204 251 243 124 124 180 220 234 239 232 231 227 221 220 225 227 221 214 225 237 245 255 251 186 206 222 210 218 228 231 235 235 227 223 224 226 225 220 216 216 216 216 216 216 216 217 219 220 220 222 226 231 233 234 234 234 234 234 234 233 232 232 232 232 231 230 229 229 230 231 232 233 233 234 235 237 239 240 240 239 238 238
181 195 205 157 191 250 178 109 164 216 225 247 296 189 222 224 219 223 232 237 232 223 227 240 249 253 248 228 225 228 228 234 238 240 242 239 231 228 229 229 227 222 219 218 217 216 215 214 215 217 218 220 221 224 230 233 235 236 236 237 239 240 239 238 236 236 236 235 234 234 233 233 233 234 234 234 235 236 238 240 242 241 240 240 240 242
181 192 193 164 186 218 130 190 223 241 278 286 287 223 181 140 161 203 236 245 238 228 227 234 241 247 249 245 242 240 240 243 243 241 238 233 229 228 230 231 228 222 220 219 216 215 213 212 213 214 214 215 217 222 228 232 234 235 236 238 240 241 240 240 239 240 240 239 239 239 238 238 237 236 236 235 236 238 240 243 244 243 242 242 242 244
179 184 188 196 198 197 218 231 244 309 302 277 260 202 164 155 157 173 223 248 240 227 221 228 242 246 245 246 246 241 236 239 246 243 234 228 228 229 230 233 228 220 216 215 213 213 211 208 205 203 203 206 212 219 224 227 229 231 233 235 238 238 239 239 240 242 242 242 243 243 243 241 240 239 237 237 238 241 244 246 247 246 245 244 244 244
190 189 187 200 205 196 220 241 249 265 262 262 256 188 179 186 170 158 202 255 253 216 204 213 235 242 239 241 237 219 201 214 250 243 224 218 221 220 219 222 218 211 210 210 209 205 198 192 188 188 195 204 212 218 220 221 223 225 227 229 231 233 235 237 240 242 243 244 246 246 245 244 243 242 240 240 242 245 248 249 250 250 248 247 246 247
209 209 192 198 206 190 212 232 228 235 248 249 219 193 184 172 144 127 184 256 274 239 206 208 221 233 236 226 199 166 159 212 245 241 214 205 205 203 203 204 201 198 199 199 198 193 185 183 186 194 206 215 219 219 217 217 219 220 223 225 227 231 234 237 241 242 244 247 247 246 246 246 246 245 245 245 247 249 252 253 254 253 251 249 249 249
210 214 199 210 215 205 216 230 229 241 257 229 197 211 153 140 135 120 207 253 280 333 292 227 228 243 242 206 176 161 187 223 240 224 190 193 194 192 195 199 195 192 189 187 190 192 194 202 212 222 230 230 225 222 219 219 222 224 227 227 227 231 236 241 244 245 246 248 247 246 246 246 247 248 248 249 251 252 255 256 255 254 252 250 250 250
202 204 198 214 221 218 221 232 247 250 242 211 194 182 146 128 137 180 224 227 287 320 322 245 235 248 223 184 175 181 213 220 113 119 162 183 191 191 193 195 189 186 187 190 195 200 208 221 227 231 234 228 224 224 225 227 229 228 227 224 227 234 239 240 238 234 235 238 238 240 242 243 245 247 248 250 252 254 255 255 255 253 252 251 250 250
185 185 194 213 221 227 227 228 249 261 229 156 153 161 149 138 179 218 189 106 60 331 18 49 221 216 190 182 183 189 198 168 118 132 153 174 189 191 190 186 182 184 189 194 202 212 223 229 226 222 220 220 223 226 226 226 224 221 219 221 225 229 221 208 211 215 221 226 228 231 235 238 241 243 246 248 250 251 253 253 253 251 250 249 250 250
170 164 184 208 202 201 224 221 232 254 190 139 135 141 167 184 179 154 136 108 79 68 50 43 101 176 178 179 178 179 182 168 150 146 152 167 181 186 187 189 195 205 212 216 223 226 225 223 221 220 219 219 219 216 213 212 211 209 211 215 214 202 195 201 210 215 219 223 227 230 233 237 240 242 244 246 247 249 250 250 249 249 248 248 249 249
178 172 188 205 186 168 200 214 217 246 176 148 151 168 162 156 136 115 114 101 67 63 50 51 98 173 187 185 176 172 167 155 146 144 151 161 170 180 192 202 211 215 215 216 217 217 216 215 214 212 210 209 206 203 200 200 199 200 203 205 204 202 208 215 218 220 223 227 230 235 238 240 243 244 246 247 247 248 248 248 248 248 248 248 249 251
188 167 159 174 175 164 191 207 216 276 203 158 172 144 137 142 134 96 78 76 68 46 5 102 119 178 192 194 187 173 162 157 155 155 159 164 167 175 185 194 201 204 204 203 203 204 207 208 206 203 199 195 194 194 194 192 193 200 205 209 215 218 220 223 225 228 233 238 243 247 250 251 250 250 250 250 250 250 250 251 250 251 252 253 254 255
126 145 98 93 155 190 103 143 176 270 239 178 157 148 148 154 153 81 46 41 34 6 322 134 114 144 170 187 194 185 179 181 176 170 173 173 172 174 180 187 191 192 194 195 195 196 195 193 193 195 195 193 192 192 191 192 196 203 208 212 217 218 221 226 232 236 240 245 250 254 256 258 258 258 258 256 256 256 255 255 256 257 258 259 259 260
293 196 98 86 169 186 141 123 139 275 240 215 202 188 180 180 197 318 336 326 326 305 256 168 95 100 137 164 185 185 180 179 174 170 172 174 175 176 179 183 185 185 187 190 190 190 190 188 190 193 194 197 198 196 194 196 200 204 210 214 217 219 222 228 236 241 245 248 251 253 254 257 257 258 259 258 258 259 258 258 259 259 260 262 262 263
196 167 145 120 161 160 202 266 297 288 239 228 230 220 204 202 222 252 259 249 246 249 228 180 109 97 126 143 168 178 172 171 174 172 170 172 174 174 173 175 177 175 175 178 181 184 187 191 195 198 199 201 203 202 200 202 206 211 217 222 225 228 231 234 237 243 247 250 253 255 256 257 257 256 257 257 257 258 258 259 260 261 263 265 265 266
128 145 167 128 108 96 292 259 268 315 264 241 234 224 214 210 218 228 229 225 221 218 206 183 143 107 121 130 149 168 173 177 182 182 177 174 172 170 168 167 166 166 168 172 177 182 186 192 198 200 202 205 206 208 209 210 212 217 221 230 237 241 244 245 246 250 253 255 257 259 260 260 260 260 260 260 259 259 259 259 260 261 263 264 265 266
122 153 181 107 131 212 237 188 178 169 249 231 224 220 215 212 216 221 220 216 215 213 206 205 214 224 240 226 159 165 183 185 184 186 185 178 171 168 166 162 163 168 172 176 180 183 187 193 199 203 208 212 214 216 217 218 220 224 229 236 241 246 250 255 258 261 263 265 267 269 269 268 267 266 265 263 262 261 261 261 262 262 263 264 265 266
168 178 177 153 172 226 199 181 182 181 197 219 217 219 218 215 215 220 219 215 213 214 214 226 244 246 252 247 206 185 190 190 183 181 180 176 172 170 170 171 175 179 182 185 190 192 195 201 208 212 217 221 224 226 228 229 231 235 239 242 246 250 253 258 263 265 267 270 272 274 275 276 275 273 271 268 266 264 264 264 264 265 266 268 269 269